Weather in Girvas

Russia / Republic of Karelia     62°28′26″N   33°40′41″E
temp.,
°C
wind,
m/s
gust,
m/s
humid.,
%
clouds,
%
prec.,
mm/h
press.,
hPa
HPBL,
m
3 march, wed
wed300:00−5wnw39890 0.0 1011273
03:00−4w3119316 0.0 1011396
06:00−3wnw4119084 0.0 1008611
09:00−4wnw4138787 0.0 1007556
12:00−2w510870 0.0 1004567
15:00−2w5109150 0.2 1002747
18:00−2wnw41093100 0.8 998839
21:00−3nw61387100 0.8 998884
4 march, thu
thu400:00−5nnw4109098 0.8 998390
03:00−8nnw389581 0.8 1000211
06:00−11nnw239544 0.0 100086
09:00−11nnw249562 0.0 1001140
12:00−6nw248888 0.0 1002368
15:00−5nnw258594 0.1 1002790
18:00−7nnw2295100 0.3 100239
21:00−9nw2694100 0.3 1003200
5 march, fri
fri500:00−12wnw239645 0.0 100369
03:00−9n279671 0.3 1005348
06:00−12nnw2694100 0.1 1006165
09:00−14nnw279392 0.1 1008237
12:00−9nnw248040 0.0 1010479
15:00−8wnw258270 0.2 1011861
18:00−10wnw2591100 0.1 101195
21:00−12wnw369459 0.1 1012141
6 march, sat
sat600:00−12wnw36940 0.0 1012125
03:00−14w23940 0.0 101278
06:00−15w23960 0.0 101262
09:00−14wsw36953 0.0 1010177
12:00−8sw378868 0.0 1007460
15:00−6ssw498484 0.0 1003820
18:00−7s51193100 0.3 996900
21:00−6s51194100 1.3 990901
7 march, sun
sun700:00−6sse4996100 1.1 986527
03:00−6se2597100 2.1 982195
06:00−6ene3697100 0.3 979186
09:00−6ne61194100 0.8 980536
12:00−7ne81390100 0.6 983828
15:00−9nne81486100 0.9 9881006
18:00−11nne71584100 0.1 9931010
21:00−15n71585100 0.2 997815